Cairns, Queensland

8:38 AM AEST on February 09, 2016 (GMT +1000)
Cairns

Weather History for 94287 - March, 2013

Change the Weather History Date:

Friday, March 1, 2013

  Actual Average Record
Temperature  
Mean Temperature 84 °F -  
Max Temperature 89 °F 87 °F - ()
Min Temperature 78 °F 73 °F - ()
Cooling Degree Days 18    
Growing Degree Days 34 (Base 50)    
Moisture  
Dew Point 76 °F    
Average Humidity 78    
Maximum Humidity 94    
Minimum Humidity 57    
Precipitation  
Precipitation 0.01 in 0.58 in - ()
Sea Level Pressure  
Sea Level Pressure 29.66 in    
Wind  
Wind Speed 8 mph ()    
Max Wind Speed 16 mph    
Max Gust Speed -    
Visibility 7.3 miles    
Events Rain    
T = Trace of Precipitation, MM = Missing Value Source: Averaged Metar Reports

Daily Weather History Graph

Daily Weather History Graph

Search for Another Location

Airport or City:

Trip Planner

Search our weather history database for the weather conditions in past years. The results will help you decide how hot, cold, wet, or windy it might be!

Date:

Astronomy

Mar. 01, 2013 Rise Set
Actual Time 6:16 AM AEST 6:41 PM AEST
Civil Twilight 5:54 AM AEST 7:03 PM AEST
Nautical Twilight 5:29 AM AEST 7:29 PM AEST
Astronomical Twilight 5:03 AM AEST 7:55 PM AEST
Moon 8:59 PM AEST (3/1) 9:00 AM AEST (3/1)
Length of Visible Light 13h 09m
Length of Day
12h 25m
Waning Gibbous, 88% of the Moon is Illuminated
Mar 1
Waning Gibbous
Mar 5
Last Quarter
Mar 12
New
Mar 20
First Quarter
Mar 27
Full

Hourly Weather History & Observations

Time (AEST) Temp. Heat Index Dew Point Humidity Pressure Visibility Wind Dir Wind Speed Gust Speed Precip Events Conditions
12:00 AM 81 °F - 76 °F 80% 29.68 in - South 11.5 mph - -   Overcast
12:00 AM 80.6 °F 86.2 °F 75.2 °F 84% 29.68 in 6.2 mi South 11.5 mph - N/A   Mostly Cloudy
12:30 AM 80.6 °F 86.2 °F 75.2 °F 84% 29.68 in 6.2 mi South 8.1 mph - N/A   Mostly Cloudy
1:00 AM 81 °F - 75 °F 78% 29.69 in - South 9.2 mph - -  
1:00 AM 80.6 °F 86.2 °F 75.2 °F 84% 29.68 in 6.2 mi South 9.2 mph - N/A   Mostly Cloudy
1:30 AM 80.6 °F 87.1 °F 77.0 °F 89% 29.68 in 6.2 mi South 10.4 mph - N/A   Mostly Cloudy
2:00 AM 78.8 °F - 77.0 °F 94% 29.68 in 6.2 mi SSE 9.2 mph - N/A Rain Light Rain Showers
2:30 AM 78.8 °F - 75.2 °F 89% 29.65 in 6.2 mi SSW 5.8 mph - N/A Rain Light Rain Showers
3:00 AM 78.8 °F - 75.2 °F 89% 29.62 in 6.2 mi SSE 2.3 mph - N/A   Mostly Cloudy
3:30 AM 78.8 °F - 77.0 °F 94% 29.65 in 6.2 mi SSE 6.9 mph - N/A   Mostly Cloudy
4:00 AM 79 °F - 76 °F 89% 29.67 in - SSE 6.9 mph - -  
4:00 AM 78.8 °F - 77.0 °F 94% 29.65 in 6.2 mi SSE 6.9 mph - N/A   Mostly Cloudy
4:30 AM 80.6 °F 86.2 °F 75.2 °F 84% 29.65 in 6.2 mi South 11.5 mph - N/A   Mostly Cloudy
5:00 AM 80.6 °F 86.2 °F 75.2 °F 84% 29.65 in 6.2 mi South 9.2 mph - N/A   Mostly Cloudy
5:30 AM 80.6 °F 85.4 °F 73.4 °F 79% 29.65 in 6.2 mi SSW 8.1 mph - N/A   Scattered Clouds
6:00 AM 79 °F - 75 °F 85% 29.68 in 16 mi South 6.9 mph - -   Partly Cloudy
6:00 AM 78.8 °F - 75.2 °F 89% 29.65 in 6.2 mi South 6.9 mph - N/A   Mostly Cloudy
6:30 AM 80.6 °F 86.2 °F 75.2 °F 84% 29.65 in 6.2 mi South 11.5 mph - N/A   Mostly Cloudy
7:00 AM 80 °F - 75 °F 79% 29.70 in - South 8.1 mph - -  
7:00 AM 80.6 °F 86.2 °F 75.2 °F 84% 29.68 in 6.2 mi South 8.1 mph - N/A   Mostly Cloudy
7:30 AM 82.4 °F 89.5 °F 75.2 °F 79% 29.68 in 6.2 mi SSW 4.6 mph - N/A   Scattered Clouds
8:00 AM 84.2 °F 92.3 °F 75.2 °F 74% 29.71 in 6.2 mi SSW 4.6 mph - N/A   Mostly Cloudy
8:30 AM 82.4 °F 89.5 °F 75.2 °F 79% 29.71 in 6.2 mi South 10.4 mph - N/A   Mostly Cloudy
9:00 AM 84 °F - 76 °F 71% 29.73 in 16 mi SSE 10.4 mph - -   Partly Cloudy
9:00 AM 84.2 °F 92.3 °F 75.2 °F 74% 29.71 in 6.2 mi SSE 10.4 mph - N/A   Mostly Cloudy
9:30 AM 84.2 °F 94.1 °F 77.0 °F 79% 29.71 in 6.2 mi South 8.1 mph - N/A   Mostly Cloudy
10:00 AM 85 °F - 76 °F 67% 29.73 in - South 10.4 mph - -  
10:00 AM 84.2 °F 92.3 °F 75.2 °F 74% 29.71 in 6.2 mi South 10.4 mph - N/A   Mostly Cloudy
10:30 AM 82.4 °F 90.9 °F 77.0 °F 84% 29.71 in 6.2 mi SE 13.8 mph - N/A   Mostly Cloudy
11:00 AM 87.8 °F 102.5 °F 78.8 °F 75% 29.71 in 6.2 mi South 8.1 mph - N/A   Scattered Clouds
11:30 AM 87.8 °F 99.7 °F 77.0 °F 70% 29.68 in 6.2 mi SSE 11.5 mph - N/A   Mostly Cloudy
12:00 PM 89 °F - 77 °F 61% 29.69 in 12 mi ESE 13.8 mph - -   Partly Cloudy
12:00 PM 89.6 °F 102.2 °F 77.0 °F 66% 29.68 in 6.2 mi ESE 13.8 mph - N/A   Mostly Cloudy
12:30 PM 89.6 °F 99.8 °F 75.2 °F 62% 29.65 in 6.2 mi ESE 11.5 mph - N/A   Mostly Cloudy
1:00 PM 89 °F - 76 °F 57% 29.67 in - ESE 11.5 mph - -  
1:00 PM 89.6 °F 99.8 °F 75.2 °F 62% 29.65 in 6.2 mi ESE 11.5 mph - N/A   Mostly Cloudy
1:30 PM 87.8 °F 99.7 °F 77.0 °F 70% 29.65 in 6.2 mi ESE 13.8 mph - N/A   Mostly Cloudy
2:00 PM 87.8 °F 99.7 °F 77.0 °F 70% 29.65 in 6.2 mi ESE 16.1 mph - N/A   Mostly Cloudy
2:30 PM 87.8 °F 99.7 °F 77.0 °F 70% 29.62 in 6.2 mi SE 15.0 mph - N/A   Mostly Cloudy
3:00 PM 87 °F - 76 °F 61% 29.62 in 16 mi SE 11.5 mph - -   Partly Cloudy
3:00 PM 87.8 °F 97.6 °F 75.2 °F 66% 29.62 in 6.2 mi SE 11.5 mph - N/A   Mostly Cloudy
3:30 PM 86.0 °F 96.9 °F 77.0 °F 74% 29.62 in 6.2 mi South 11.5 mph - N/A   Mostly Cloudy
4:00 PM 87 °F - 76 °F 64% 29.63 in - SSE 12.7 mph - -  
4:00 PM 87.8 °F 99.7 °F 77.0 °F 70% 29.62 in 6.2 mi SSE 12.7 mph - N/A   Mostly Cloudy
4:30 PM 86.0 °F 96.9 °F 77.0 °F 74% 29.59 in 6.2 mi South 10.4 mph - N/A   Mostly Cloudy
5:00 PM 84.2 °F 92.3 °F 75.2 °F 74% 29.59 in 6.2 mi South 9.2 mph - N/A   Mostly Cloudy
5:30 PM 86.0 °F 95.1 °F 75.2 °F 70% 29.59 in 6.2 mi South 9.2 mph - N/A   Mostly Cloudy
6:00 PM 85 °F - 76 °F 68% 29.62 in 19 mi SSE 10.4 mph - -   Partly Cloudy
6:00 PM 84.2 °F 92.3 °F 75.2 °F 74% 29.59 in 6.2 mi SSE 10.4 mph - N/A   Mostly Cloudy
6:30 PM 84.2 °F 94.1 °F 77.0 °F 79% 29.62 in 6.2 mi South 5.8 mph - N/A   Mostly Cloudy
7:00 PM 83 °F - 77 °F 76% 29.64 in - South 4.6 mph - -  
7:00 PM 82.4 °F 90.9 °F 77.0 °F 84% 29.62 in 6.2 mi South 4.6 mph - N/A   Mostly Cloudy
7:30 PM 82.4 °F 90.9 °F 77.0 °F 84% 29.65 in 6.2 mi South 5.8 mph - N/A   Scattered Clouds
8:00 PM 82.4 °F 90.9 °F 77.0 °F 84% 29.65 in 6.2 mi South 5.8 mph - N/A   Scattered Clouds
8:30 PM 82.4 °F 90.9 °F 77.0 °F 84% 29.65 in 6.2 mi South 5.8 mph - N/A   Scattered Clouds
9:00 PM 82 °F - 77 °F 81% 29.68 in 19 mi South 2.3 mph - -   Partly Cloudy
9:00 PM 82.4 °F 90.9 °F 77.0 °F 84% 29.68 in 6.2 mi South 2.3 mph - N/A   Partly Cloudy
9:30 PM 82.4 °F 90.9 °F 77.0 °F 84% 29.65 in 6.2 mi SSE 5.8 mph - N/A   Scattered Clouds
10:00 PM 82 °F - 77 °F 79% 29.69 in - SW 3.5 mph - -  
10:00 PM 82.4 °F 90.9 °F 77.0 °F 84% 29.68 in 6.2 mi SW 3.5 mph - N/A   Scattered Clouds
10:30 PM 80.6 °F 87.1 °F 77.0 °F 89% 29.68 in 6.2 mi NW 6.9 mph - N/A   Scattered Clouds
11:00 PM 80.6 °F 87.1 °F 77.0 °F 89% 29.68 in 6.2 mi South 3.5 mph - N/A   Scattered Clouds
11:30 PM 80.6 °F 87.1 °F 77.0 °F 89% 29.68 in 6.2 mi West 5.8 mph - N/A   Scattered Clouds